Track STARLINK-3877 now! 10-day predictions STARLINK-3877 is classified as:
1 52355U 22045AA 22185.91667824 -.00718566 00000-0 -22324-1 0 9993 2 52355 53.2176 113.1301 0001620 44.1952 64.4068 15.35374715 1303